This is the latest recevied weather packets stored in our database for station/object KD7JB. If no packets are shown the sender has not sent any weather packets the latest 10 day(s).
| Time | Temp. | Humidity | Pressure | Rain* | Wind** | Luminosity | Snow |
|---|---|---|---|---|---|---|---|
| 1777503435 | 13.89° C | 46% | 1183.6 hPa | 0 mm | - | 565 W/m² | - |
| 1777503130 | 15° C | 43% | 1183.6 hPa | 0 mm | - | 573 W/m² | - |
| 1777502828 | 13.33° C | 45% | 1183.7 hPa | 0 mm | - | 596 W/m² | - |
| 1777502525 | 12.78° C | 44% | 1183.8 hPa | 0 mm | - | 120 W/m² | - |
| 1777502222 | 13.33° C | 45% | 1183.8 hPa | 0 mm | - | 105 W/m² | - |
| 1777501919 | 12.78° C | 49% | 1183.7 hPa | 0 mm | - | 313 W/m² | - |
| 1777501616 | 12.78° C | 50% | 1184 hPa | 0 mm | - | 117 W/m² | - |
| 1777501313 | 12.78° C | 50% | 1183.8 hPa | 0 mm | - | 122 W/m² | - |
| 1777501011 | 12.78° C | 49% | 1184 hPa | 0 mm | - | 128 W/m² | - |
| 1777500708 | 13.33° C | 52% | 1183.8 hPa | 0 mm | - | 207 W/m² | - |
| 1777500405 | 13.89° C | 49% | 1183.7 hPa | 0 mm | - | 201 W/m² | - |
| 1777500101 | 13.89° C | 49% | 1184 hPa | 0 mm | - | 598 W/m² | - |
| 1777499798 | 13.89° C | 50% | 1184.3 hPa | 0 mm | - | 739 W/m² | - |
| 1777499494 | 13.89° C | 51% | 1184.2 hPa | 0 mm | - | 752 W/m² | - |
| 1777499193 | 13.89° C | 49% | 1184.2 hPa | 0 mm | - | 769 W/m² | - |
| 1777498889 | 12.78° C | 49% | 1184 hPa | 0 mm | - | 773 W/m² | - |
| 1777498586 | 12.78° C | 50% | 1184.1 hPa | 0 mm | - | 209 W/m² | - |
| 1777498281 | 13.89° C | 48% | 1184.2 hPa | 0 mm | - | 242 W/m² | - |
| 1777497981 | 13.89° C | 47% | 1184 hPa | 0 mm | - | 778 W/m² | - |
| 1777497676 | 12.78° C | 47% | 1184.1 hPa | 0 mm | - | 772 W/m² | - |
| 1777497373 | 12.22° C | 49% | 1184.1 hPa | 0 mm | - | 152 W/m² | - |
| 1777497068 | 12.78° C | 51% | 1184.1 hPa | 0 mm | - | 130 W/m² | - |
| 1777496765 | 12.78° C | 50% | 1184.2 hPa | 0 mm | - | 174 W/m² | - |
| 1777496462 | 12.78° C | 50% | 1184.2 hPa | 0 mm | - | 225 W/m² | - |
| 1777496159 | 13.33° C | 52% | 1184.1 hPa | 0 mm | - | 313 W/m² | - |
* Rain latest hour (hover to see other rain measurements)
** Current wind speed in m/s (hover to see current wind gust speed)